Regional Weather Roundup
Issued by NWS New Orleans/Baton Rouge, LA

Home | Current Version | Previous Version | Text Only | Print | Product List | Glossary On
Versions: 1 2 3 4 5 6 7 8 9 10 11 12 13 14 15 16 17 18 19 20 21 22 23 24 25 26 27 28 29 30 31 32 33 34 35 36 37 38 39 40 41 42 43 44 45 46 47 48 49
000
ASUS44 KLIX 250311
RWRLIX
NEW ORLEANS REGIONAL WEATHER ROUNDUP
NATIONAL WEATHER SERVICE NEW ORLEANS LA
1000 PM CDT TUE MAY 24 2016

NOTE: "FAIR" INDICATES FEW OR NO CLOUDS BELOW 12,000 FEET WITH NO
      SIGNIFICANT WEATHER AND/OR OBSTRUCTIONS TO VISIBILITY.
      SKY/WX - SKY CONDITION AND SIGNIFICANT WEATHER.
      TMP - AIR TEMPERATURE.     DP    - DEWPOINT TEMPERATURE.
      RH  - RELATIVE HUMIDITY.   PRES  - PRESSURE.
      HI  - HEAT INDEX.          WCI   - WIND CHILL INDEX.

*  THESE STATIONS ARE NOT NWS OR FAA STATIONS AND ARE NOT UNDER
   NWS QUALITY CONTROL.

LAZ038-040-048-061>063-065>067-069-250400-
SOUTHEAST LOUISIANA

CITY           SKY/WX    TMP DP  RH WIND       PRES   REMARKS
N.O. AUDUBON     N/A     78  73  82 MISG        N/A
N.O. INTL ARPT PTCLDY    79  72  79 SE8       30.12R
N.O. LAKEFRONT CLEAR     78  71  79 SE9       30.12R
N.O. DOWNTOWN*   N/A     79  72  79 VRB6      30.13R
RESERVE*         N/A     78  73  83 SE6       30.11R
SLIDELL        CLEAR     74  70  87 CALM      30.12R
BATON ROUGE    CLEAR     77  71  82 E8        30.09R
BOOTHVILLE     CLEAR     75  70  84 SE3       30.13R
BELLE CHASSE   PTCLDY    77  72  84 SE8       30.12R
BOGALUSA*        N/A     75  67  76 CALM      30.14R
GALLIANO*      PTCLDY    78  73  83 SE5       30.11R
NEW ROADS*     MOCLDY    78  72  81 E7        30.09R
GONZALES*        N/A     79  72  79 SE3       30.09R
HAMMOND*       CLEAR     77  68  73 E5        30.11R
HOUMA*           N/A     76  73  93 SE6       30.10S
PORT FOURCHON* MOCLDY    79  73  83 SE12      30.12R

$$

MSZ070-080>082-250400-
SOUTHERN MISSISSIPPI

CITY           SKY/WX    TMP DP  RH WIND       PRES   REMARKS
MCCOMB         CLEAR     74  67  78 SE8       30.12R
GULFPORT       CLEAR     77  68  73 SE6       30.13R
BILOXI         PTCLDY    77  71  80 S5        30.13R
PASCAGOULA     CLEAR     66  65  96 CALM      30.14R

$$

COASTAL OBSERVATIONS
LAKE AND NEARSHORE STATIONS

STATION/POSITION TIME  TEMP    WIND        PRES    WAVE
                       AIR SEA DIR/SP/G            HT/PER
                 (UTC) (F)     (DEG/KT/KT) (MB)    (FT/S)
PASCAGOULA       0200   78                 1019.5
WAVELAND YACHT   0200   78 80              1019.6
GRAND ISLE       0200   79 82              1019.0
SOUTHWEST PASS   0200          130/ 10/ 15   N/A
NEW CANAL        0200   79 81              1018.4
SHELL BEACH      0200   77 82              1019.6

OFFSHORE STATIONS

STATION/POSITION TIME  TEMP    WIND        PRES    WAVE
                       AIR SEA DIR/SP/G            HT/PER
                 (UTC) (F)     (DEG/KT/KT) (MB)    (FT/S)
64 S DAUPHIN ISL 0200   78 77  130/ 10/ 12 1019.5

$$




USA.gov is the U.S. government's official web portal to all federal, state and local government web resources and services.